Location: Arbon
(43.0005°N, 0.7472°E)
Time: 18:58:33
(UTC+00:00)

SL-16 R/B - Pass Details

Date: 07 August 2020
Orbit: 841 x 849 km, 71.0° (Epoch: 23 September)

Event Time Altitude Azimuth Distance (km) Brightness Sun altitude
Rises 03:44:29 0° 321° (NW) 3,420 5.3 -11.9°
Reaches altitude 10° 03:47:34 10° 305° (NW) 2,479 4.4 -11.5°
Maximum altitude 03:51:32 20° 260° (W) 1,872 3.5 -10.9°
Enters shadow 03:54:54 12° 220° (SW) 2,317 3.9 -10.4°
